This is the latest recevied weather packets stored in our database for station/object CA3PBK-13. If no packets are shown the sender has not sent any weather packets the latest 10 day(s).
| Time | Temp. | Humidity | Pressure | Rain* | Wind** | Luminosity | Snow |
|---|---|---|---|---|---|---|---|
| 1778245267 | 11.67° C | 1% | 931.8 hPa | 0 mm | - | - | - |
| 1778245147 | 12.22° C | 1% | 931.8 hPa | 0 mm | - | - | - |
| 1778245027 | 12.22° C | 1% | 931.6 hPa | 0 mm | - | - | - |
| 1778244908 | 11.67° C | 1% | 931.7 hPa | 0 mm | - | - | - |
| 1778244787 | 11.67° C | 1% | 931.9 hPa | 0 mm | - | - | - |
| 1778244667 | 11.67° C | 1% | 932.1 hPa | 0 mm | - | - | - |
| 1778244547 | 11.67° C | 1% | 932.1 hPa | 0 mm | - | - | - |
| 1778244427 | 11.67° C | 1% | 932.1 hPa | 0 mm | - | - | - |
| 1778244308 | 11.11° C | 1% | 932.1 hPa | 0 mm | - | - | - |
| 1778244187 | 10.56° C | 1% | 932.3 hPa | 0 mm | - | - | - |
| 1778244068 | 10.56° C | 1% | 932.3 hPa | 0 mm | - | - | - |
| 1778243947 | 10.56° C | 1% | 932.3 hPa | 0 mm | - | - | - |
| 1778243827 | 10.56° C | 1% | 932.2 hPa | 0 mm | - | - | - |
| 1778243708 | 10° C | 1% | 932.3 hPa | 0 mm | - | - | - |
| 1778243587 | 10° C | 1% | 932.4 hPa | 0 mm | - | - | - |
| 1778243467 | 10.56° C | 1% | 932.2 hPa | 0 mm | - | - | - |
| 1778243347 | 10° C | 1% | 932.1 hPa | 0 mm | - | - | - |
| 1778243227 | 10° C | 1% | 932.3 hPa | 0 mm | - | - | - |
| 1778243108 | 10° C | 1% | 932.3 hPa | 0 mm | - | - | - |
| 1778242987 | 10° C | 1% | 932.2 hPa | 0 mm | - | - | - |
| 1778242867 | 9.44° C | 1% | 932.3 hPa | 0 mm | - | - | - |
| 1778242748 | 9.44° C | 1% | 932.4 hPa | 0 mm | - | - | - |
| 1778242627 | 9.44° C | 1% | 932.6 hPa | 0 mm | - | - | - |
| 1778242509 | 9.44° C | 1% | 932.5 hPa | 0 mm | - | - | - |
| 1778242387 | 9.44° C | 1% | 932.4 hPa | 0 mm | - | - | - |
* Rain latest hour (hover to see other rain measurements)
** Current wind speed in m/s (hover to see current wind gust speed)